Simultaneous Nadir Overpasses (SNOs) Predictions

Prediction of SNOs between LANDSAT-8 and NOAA-19 Satellite Orbit:

Table of predicted SNOs for the next 14.0 days since TLE Epoch: 4/6/2018
Index Date (LANDSAT-8) Time (LANDSAT-8) Lat,Lon (LANDSAT-8) SZA (LANDSAT-8 ) Date (NOAA-19) Time (NOAA-19) Lat,Lon (NOAA-19) SZA (NOAA-19 ) Distance(km) Time Diff (sec)
1 04/06/2018 14:26:35 77.43, -23.77 71.08 04/06/2018 14:25:24 77.45, -23.88 71.08 3.15 71
2 04/06/2018 15:16:03 -77.40, 143.72 108.98 04/06/2018 15:16:17 -77.39, 143.70 108.98 1.17 14
3 04/08/2018 20:00:11 -77.77, 74.22 109.34 04/08/2018 19:59:05 -77.81, 70.93 109.47 77.41 66
4 04/08/2018 20:49:45 77.40,-119.69 70.21 04/08/2018 20:50:01 77.39,-119.68 70.20 1.18 16
5 04/11/2018 01:33:55 77.69, 170.41 69.74 04/11/2018 01:32:47 77.75, 167.91 69.67 59.47 68
6 04/11/2018 02:23:28 -77.43, -23.02 110.59 04/11/2018 02:23:33 -77.40, -23.01 110.62 3.53 5
7 04/13/2018 07:57:09 77.42, 73.53 68.61 04/13/2018 07:57:16 77.42, 73.50 68.61 0.70 7
8 04/15/2018 13:30:52 -77.45, 170.20 112.16 04/15/2018 13:30:48 -77.42, 170.22 112.19 3.93 4
9 04/17/2018 19:04:34 77.44, -93.28 67.05 04/17/2018 19:04:31 77.43, -93.21 67.05 1.70 3
10 04/17/2018 19:54:11 -77.00, 72.66 113.48 04/17/2018 19:55:15 -76.95, 76.30 113.31 91.38 64
11 04/20/2018 00:38:17 -77.46, 3.39 113.69 04/20/2018 00:38:04 -77.45, 3.41 113.71 2.15 13




NCC Satellite Simultaneous Nadir Overpasses (SNOs) Prediction Service
